sat.trackr.live / text

‹ back to catalog

STARLINK-34480

NORAD 64427 · 2025-129R

PAYLOAD ACTIVE UNKNOWN

§ Identity

Operator
Country
US
Launch date
2025-06-17
Launch site
AFWTR
Launch vehicle
Mass (kg)
RCS (m²)

Purposes: comms

External: N2YO · Heavens-Above · Gunter

§ Orbital elements

Epoch: 2026-09-20T12:55:17.499072Z

Period
94.14 min
Inclination
69.9999°
Eccentricity
0.0003223
Mean motion
15.29586283 rev/d
Perigee alt
474.8 km
Apogee alt
479.3 km
Semi-major
6,855.2 km
B*
2.8001e-4
RAAN
300.7798°
Arg perigee
269.7945°
Mean anomaly
90.2861°
Rev number
7,053

§ Raw data

STARLINK-344801 64427U 25129R   26263.53839698  .00007932  00000+0  28001-3 0  99962 64427  69.9999 300.7798 0003223 269.7945  90.2861 15.29586283 70532

JSON: /api/v1/satellites/64427 · /tle

For live sub-satellite position, see the globe view (requires WebGL).

§ Visibility from observer

Set your observer location to see the next 7 days of passes ≥ 10°. The values pass through the URL so the page stays shareable.

No JS? Fill the form by hand. The geolocation button needs JavaScript.